This is the latest recevied weather packets stored in our database for station/object 4S6DRJ-13. If no packets are shown the sender has not sent any weather packets the latest 10 day(s).
| Time | Temp. | Humidity | Pressure | Rain* | Wind** | Luminosity | Snow |
|---|---|---|---|---|---|---|---|
| 1777581595 | 26.67° C | 93% | 1006.8 hPa | 0 mm | 0.45 m/s, 139° | 0 W/m² | - |
| 1777581538 | 26.67° C | 93% | 1006.8 hPa | 0 mm | 0.45 m/s, 140° | 0 W/m² | - |
| 1777581473 | 26.67° C | 93% | 1006.7 hPa | 0 mm | 0.45 m/s, 156° | 0 W/m² | - |
| 1777581412 | 26.67° C | 93% | 1006.5 hPa | 0 mm | 0.45 m/s, 145° | 0 W/m² | - |
| 1777581351 | 26.67° C | 93% | 1006.7 hPa | 0 mm | 0.89 m/s, 148° | 0 W/m² | - |
| 1777581290 | 26.67° C | 93% | 1006.8 hPa | 0 mm | 0.45 m/s, 160° | 0 W/m² | - |
| 1777581229 | 26.67° C | 93% | 1006.8 hPa | 0 mm | 0.89 m/s, 128° | 0 W/m² | - |
| 1777581168 | 26.67° C | 93% | 1006.6 hPa | 0 mm | 0.45 m/s, 134° | 0 W/m² | - |
| 1777581107 | 26.67° C | 93% | 1007 hPa | 0 mm | 0.89 m/s, 134° | 0 W/m² | - |
| 1777581047 | 26.67° C | 93% | 1006.8 hPa | 0 mm | 1.34 m/s, 139° | 0 W/m² | - |
| 1777580985 | 26.67° C | 93% | 1006.9 hPa | 0 mm | 0.45 m/s, 151° | 0 W/m² | - |
| 1777580924 | 26.67° C | 93% | 1006.7 hPa | 0 mm | 1.34 m/s, 136° | 0 W/m² | - |
| 1777580863 | 26.67° C | 94% | 1006.9 hPa | 0 mm | 0 m/s | 0 W/m² | - |
| 1777580802 | 26.67° C | 94% | 1006.9 hPa | 0 mm | 0.89 m/s, 110° | 0 W/m² | - |
| 1777580741 | 26.67° C | 93% | 1006.7 hPa | 0 mm | 1.34 m/s, 151° | 0 W/m² | - |
| 1777580680 | 26.67° C | 93% | 1006.8 hPa | 0 mm | 0.89 m/s, 96° | 0 W/m² | - |
| 1777580619 | 26.67° C | 94% | 1006.8 hPa | 0 mm | 0.89 m/s, 109° | 0 W/m² | - |
| 1777580558 | 26.67° C | 94% | 1007 hPa | 0 mm | 1.34 m/s, 150° | 0 W/m² | - |
| 1777580497 | 26.67° C | 94% | 1007 hPa | 0 mm | 1.34 m/s, 152° | 0 W/m² | - |
| 1777580436 | 26.67° C | 94% | 1006.8 hPa | 0 mm | 0.89 m/s, 138° | 0 W/m² | - |
| 1777580375 | 26.67° C | 94% | 1007 hPa | 0 mm | 1.34 m/s, 123° | 0 W/m² | - |
| 1777580314 | 26.67° C | 94% | 1006.9 hPa | 0 mm | 1.34 m/s, 118° | 0 W/m² | - |
| 1777580253 | 26.67° C | 94% | 1007 hPa | 0 mm | 0.89 m/s, 128° | 0 W/m² | - |
| 1777580192 | 26.67° C | 94% | 1007 hPa | 0 mm | 0.89 m/s, 105° | 0 W/m² | - |
| 1777580131 | 26.67° C | 93% | 1007.2 hPa | 0 mm | 0.89 m/s, 131° | 0 W/m² | - |
* Rain latest hour (hover to see other rain measurements)
** Current wind speed in m/s (hover to see current wind gust speed)